User: anonymous   Login
Location: Drayton Valley
(53.2170°N, 114.9830°W)
Time: 23:51:49
(UTC-07:00)
Language:

Cosmos 1302 Rocket - Orbit

View from above orbital plane
View from above orbital plane
View from above satellite
View from above satellite

Ground track
Ground track

The orbit data is extracted from the following two-line orbital elements,

1 12792U 81084B   15059.78022942  .00000202  00000-0  76730-4 0  9997
2 12792 074.0305 140.4283 0014984 270.0795 202.5229 14.37258200754459
Epoch (UTC): 28 February 2015 18:43:31
Eccentricity: 0.0014984
inclination: 74.0305°
perigee height: 757 km
apogee height: 778 km
right ascension of ascending node: 140.4283°
argument of perigee: 270.0795°
revolutions per day: 14.37258200
mean anomaly at epoch: 202.5229°
orbit number at epoch: 75445

The dashed part of the orbit path shows where the satellite is in the earth's shadow,  

DLR